Lubbock, TX

3:57 AM CST on December 15, 2019 (GMT -0600)
Lubbock International

Weather History for KLBB - May, 2019

Change the Weather History Date:

Monday, May 13, 2019

  Actual Average Record
Temperature  
Mean Temperature 69 °F 69 °F  
Max Temperature 80 °F 83 °F 100 °F (2006)
Min Temperature 57 °F 55 °F 37 °F (1953)
Degree Days  
Heating Degree Days 0 1  
Month to date heating degree days 51 26  
Since 1 July heating degree days 3448 3363  
Cooling Degree Days 4 5  
Month to date cooling degree days 32 54  
Year to date cooling degree days 95 110  
Growing Degree Days 18 (Base 50)    
Moisture  
Dew Point 50 °F    
Average Humidity 58    
Maximum Humidity 86    
Minimum Humidity 30    
Precipitation  
Precipitation T in 0.08 in 1.77 in (1950)
Month to date precipitation 0.69 0.77  
Year to date precipitation 3.61 4.68  
Snow  
Snow 0.00 in 0.00 in T in (1950)
Month to date snowfall T 0.0  
Since 1 July snowfall 10.1 8.2  
Snow Depth 0.00 in    
Sea Level Pressure  
Sea Level Pressure 29.88 in    
Wind  
Wind Speed 10 mph (SSW)    
Max Wind Speed 26 mph    
Max Gust Speed 34 mph    
Visibility 10 miles    
Events Rain , Thunderstorm    
T = Trace of Precipitation, MM = Missing Value Source: NWS Daily Summary

Daily Weather History Graph

Daily Weather History Graph

Search for Another Location

Airport or City:

Astronomy

May. 13, 2019 Rise Set
Actual Time 6:48 AM CDT 8:39 PM CDT
Civil Twilight 6:20 AM CDT 9:06 PM CDT
Nautical Twilight 5:47 AM CDT 9:40 PM CDT
Astronomical Twilight 5:12 AM CDT 10:15 PM CDT
Moon 3:14 PM CDT (5/13) 3:45 AM CDT (5/13)
Length of Visible Light 14h 46m
Length of Day
13h 51m
Waxing Gibbous, 69% of the Moon is Illuminated
May 13
Waxing Gibbous
May 18
Full
May 26
Last Quarter
Jun 3
New
Jun 10
First Quarter

Hourly Weather History & Observations

Time (CDT) Temp. Dew Point Humidity Pressure Visibility Wind Dir Wind Speed Gust Speed Precip Events Conditions
12:20 AM 62.1 °F 54.0 °F 75% 29.98 in 10.0 mi SSE 10.4 mph - 0.00 in Rain , Thunderstorm Light Thunderstorms and Rain
12:53 AM 63.0 °F 53.1 °F 70% 29.87 in 10.0 mi South 6.9 mph - 0.00 in Thunderstorm Thunderstorm
1:53 AM 62.1 °F 52.0 °F 70% 29.87 in 10.0 mi SSE 9.2 mph - 0.00 in Thunderstorm Thunderstorm
2:21 AM 61.0 °F 54.0 °F 78% 29.99 in 10.0 mi South 10.4 mph - N/A   Mostly Cloudy
2:53 AM 61.0 °F 53.1 °F 75% 29.87 in 10.0 mi South 5.8 mph - N/A   Mostly Cloudy
3:53 AM 61.0 °F 54.0 °F 78% 29.85 in 10.0 mi South 8.1 mph - N/A   Mostly Cloudy
4:53 AM 60.1 °F 54.0 °F 80% 29.85 in 10.0 mi SSW 6.9 mph - N/A   Mostly Cloudy
5:53 AM 57.9 °F 53.1 °F 84% 29.85 in 10.0 mi SSW 5.8 mph - N/A   Mostly Cloudy
6:53 AM 57.0 °F 52.0 °F 83% 29.88 in 10.0 mi SSW 9.2 mph - N/A   Mostly Cloudy
7:53 AM 62.1 °F 51.1 °F 67% 29.89 in 10.0 mi SSW 17.3 mph 25.3 mph N/A   Mostly Cloudy
8:04 AM 62.1 °F 51.1 °F 67% 30.01 in 10.0 mi SSW 16.1 mph - N/A Thunderstorm Mostly Cloudy
8:35 AM 64.0 °F 48.9 °F 58% 30.01 in 10.0 mi SSW 13.8 mph - N/A   Mostly Cloudy
8:53 AM 64.9 °F 48.9 °F 56% 29.89 in 10.0 mi SW 11.5 mph - N/A   Scattered Clouds
9:53 AM 68.0 °F 48.0 °F 49% 29.88 in 10.0 mi WSW 6.9 mph - N/A   Mostly Cloudy
10:53 AM 72.0 °F 46.9 °F 41% 29.90 in 10.0 mi SW 5.8 mph - N/A   Scattered Clouds
11:53 AM 73.9 °F 46.0 °F 37% 29.88 in 10.0 mi WSW 11.5 mph - N/A   Scattered Clouds
12:53 PM 75.9 °F 45.0 °F 33% 29.86 in 10.0 mi WSW 11.5 mph 18.4 mph N/A   Partly Cloudy
1:53 PM 78.1 °F 46.0 °F 32% 29.84 in 10.0 mi WSW 10.4 mph 17.3 mph N/A   Partly Cloudy
2:53 PM 79.0 °F 45.0 °F 30% 29.83 in 10.0 mi Variable 5.8 mph - N/A   Scattered Clouds
3:53 PM 78.1 °F 46.9 °F 33% 29.81 in 10.0 mi SSW 10.4 mph - N/A   Mostly Cloudy
4:53 PM 79.0 °F 46.0 °F 31% 29.79 in 10.0 mi South 9.2 mph - N/A   Mostly Cloudy
5:53 PM 77.0 °F 45.0 °F 32% 29.80 in 10.0 mi SSW 10.4 mph - N/A   Mostly Cloudy
6:49 PM 75.2 °F 48.2 °F 38% 29.93 in 10.0 mi South 17.3 mph - 0.00 in Rain , Thunderstorm Light Thunderstorms and Rain
6:53 PM 73.9 °F 50.0 °F 43% 29.82 in 10.0 mi South 17.3 mph - 0.00 in Rain , Thunderstorm Light Thunderstorms and Rain
7:21 PM 73.0 °F 52.0 °F 48% 29.94 in 10.0 mi SW 20.7 mph 34.5 mph 0.00 in   Mostly Cloudy
7:53 PM 70.0 °F 51.1 °F 51% 29.85 in 10.0 mi SSW 25.3 mph 31.1 mph 0.00 in   Mostly Cloudy
8:53 PM 64.0 °F 48.9 °F 58% 29.88 in 10.0 mi SW 17.3 mph - N/A   Mostly Cloudy
9:53 PM 62.1 °F 51.1 °F 67% 29.89 in 10.0 mi WSW 10.4 mph - N/A   Mostly Cloudy
10:53 PM 61.0 °F 50.0 °F 67% 29.90 in 10.0 mi WSW 5.8 mph - N/A   Mostly Cloudy
11:53 PM 60.1 °F 50.0 °F 69% 29.92 in 10.0 mi SW 11.5 mph - N/A   Mostly Cloudy